Location: Dolley
(33.8656°N, 118.0912°W)
Time: 06:06:55
(UTC+00:00)

Daily predictions for brighter satellites

Satellite Brightness Start Highest point End
(mag) Time Altitude Azimuth Time Altitude Azimuth Time Altitude Azimuth
ACS3 Solar Sail 3.9 12:10:26 10° N 12:10:38 11° N 12:10:38 11° N
NOSS 3-1 (C) 3.6 12:21:05 36° N 12:21:05 36° N 12:24:37 10° NNE
Cosmos 2237 Rocket 3.8 12:14:58 10° SSE 12:20:03 35° ESE 12:25:07 10° NE
Cosmos 1733 Rocket 3.9 12:25:33 37° S 12:25:33 37° S 12:28:12 10° S
Cosmos 1606 4.3 12:26:52 19° SE 12:26:52 19° SE 12:27:55 10° SSE
Meteor 1-24 Rocket 4.3 12:20:42 10° S 12:26:27 60° E 12:32:02 10° NNE
SL-16 R/B 3.8 12:21:29 10° SSW 12:24:12 24° SW 12:24:12 24° SW
Meteor 2-14 Rocket 4.3 12:25:07 10° SSW 12:31:09 63° W 12:37:13 10° N
Meteor 2-5 Rocket 4.2 12:28:43 10° S 12:34:34 64° E 12:40:23 10° NNE
UNK 3.7 12:30:28 10° S 12:34:46 55° WSW 12:34:46 55° WSW
Gbstr 26 Del rocket 4.3 12:40:41 29° NNW 12:40:48 29° NNW 12:45:37 10° NNE
Orbus 7S? 4.3 12:42:06 10° SW 12:51:27 67° NW 12:55:30 10° NNE
COSMO-SKYMED 1 4.4 12:48:03 10° SE 12:51:36 29° ENE 12:55:10 10° NNE
Cosmos 1340 Rocket 2.7 12:52:02 43° WNW 12:52:43 50° W 12:56:20 10° S
Cosmos 2100 Rocket 3.9 12:48:02 10° N 12:54:09 74° W 13:00:17 10° S
DELTA 2 R/B (1) 4.4 12:55:54 26° WSW 12:57:57 34° SW 13:02:56 10° SSE
NOAA 12 4.1 12:54:42 10° NNE 13:00:02 87° ESE 13:05:21 10° SSW
Cosmos 1943 Rocket 3.4 12:56:06 10° N 13:01:19 41° ENE 13:06:28 10° SE
NOSS 3-1 (A) 2.8 12:59:39 15° SW 13:03:17 56° NW 13:08:20 10° NNE
Cosmos 1703 Rocket 3.5 12:59:04 10° SSW 13:03:19 59° W 13:07:38 10° N
NOSS 0 Rocket 3.9 12:58:19 10° SW 13:04:21 59° WNW 13:10:25 10° NNE
USA 276 4.4 13:06:16 10° N 13:07:39 13° NNE 13:09:07 10° ENE
CZ-4 R/B 3.8 13:05:08 10° N 13:09:57 62° WNW 13:14:38 10° SSW
Cosmos 921 Rocket 3.6 13:09:58 16° NW 13:13:00 35° W 13:17:02 10° SSW
Cosmos 1864 Rocket 4.5 13:10:51 10° N 13:17:07 73° W 13:23:24 10° S
Cosmos 1459 Rocket 4.1 13:11:11 10° NNW 13:17:19 52° W 13:23:24 10° SSW
SL-16 R/B 4.5 13:13:05 10° SSE 13:17:50 28° ESE 13:22:36 10° NE
Cosmos 44 Rocket 3.5 13:18:39 10° NNW 13:23:48 81° ENE 13:28:57 10° SSE
Cosmos 1140 Rocket 3.4 13:18:50 10° NNW 13:23:53 63° WSW 13:28:54 10° S
Cosmos 1725 Rocket 4.0 13:19:57 10° NNW 13:26:13 68° W 13:32:27 10° S
COSMOS 2428 3.8 13:22:13 10° WSW 13:26:31 23° WNW 13:30:57 10° N
Cosmos 1484 Rocket 2.7 13:24:36 10° NNE 13:28:08 78° ESE 13:31:39 10° S
Cosmos 1782 Rocket 3.6 13:27:26 10° N 13:31:51 87° E 13:36:11 10° S
IGS 5A 4.5 13:28:03 10° NNE 13:31:57 49° E 13:35:49 10° S
USA 234 3.5 13:26:26 10° SSE 13:32:46 52° SW 13:39:08 10° NW
Cosmos 1802 Rocket 4.2 13:26:39 10° NNW 13:32:47 53° W 13:38:47 10° SSW
CBERS-1 4.4 13:32:06 10° NNE 13:37:13 71° ESE 13:42:17 10° S
Cosmos 2233 Rocket 4.0 13:31:59 10° N 13:38:18 82° W 13:44:32 10° S
Cosmos 2056 Rocket 4.0 13:33:39 10° S 13:38:59 71° ESE 13:44:22 10° NNE
Iridium 4 Rocket 3.4 13:35:50 10° NNW 13:39:48 39° W 13:43:38 10° SSW
IRS-1D 4.3 13:36:09 10° NNW 13:40:17 27° WNW 13:44:22 10° SW
Cosmos 1980 4.3 13:42:32 10° SW 13:47:36 34° WNW 13:52:44 10° N
Helios 1A Rocket 3.5 13:49:25 10° SSW 13:52:20 26° W 13:55:14 10° NW
Cosmos 1300 Rocket 3.9 13:49:20 10° NNW 13:53:26 43° W 13:57:28 10° SSW
BlueWalker 3 2.3 13:50:47 10° NW 13:54:19 55° NE 13:57:51 10° ESE
IUS-1 SRM-2 4.2 13:50:48 10° W 13:55:57 22° SSW 13:58:23 10° SSE
Cosmos 1371 Rocket 4.0 13:52:08 10° SSW 13:57:22 80° WNW 14:02:41 10° NNE
